Time,TemperatureF,DewpointF,PressureIn,WindDirection,WindDirectionDegrees,WindSpeedMPH,WindSpeedGustMPH,Humidity,HourlyPrecipIn,Conditions,Clouds,dailyrainin,SoftwareType,DateUTC
2013-04-01 00:00:00,40.1,30.8,29.67,WSW,254,5.0,20.0,69,0.00,,,0.05,VWS V14.01,2013-04-01 04:00:00,
2013-04-01 00:05:00,39.7,30.4,29.67,WNW,286,5.0,22.0,69,0.00,,,0.00,VWS V14.01,2013-04-01 04:05:00,
2013-04-01 00:10:00,39.3,30.0,29.67,West,273,6.0,22.0,69,0.00,,,0.00,VWS V14.01,2013-04-01 04:10:00,
2013-04-01 00:12:00,39.2,29.9,29.67,West,277,14.0,22.0,69,0.00,,,0.00,VWS V14.01,2013-04-01 04:12:00,
2013-04-01 00:17:00,38.9,29.6,29.67,West,261,4.0,22.0,69,0.00,,,0.00,VWS V14.01,2013-04-01 04:17:00,
2013-04-01 00:22:00,38.7,29.8,29.67,WNW,298,7.0,22.0,70,0.00,,,0.00,VWS V14.01,2013-04-01 04:22:00,
2013-04-01 00:27:00,38.6,29.7,29.67,NW,306,10.0,22.0,70,0.00,,,0.00,VWS V14.01,2013-04-01 04:27:00,
2013-04-01 00:32:00,38.6,30.0,29.67,NW,309,5.0,22.0,71,0.00,,,0.00,VWS V14.01,2013-04-01 04:32:00,
2013-04-01 00:37:00,38.5,29.9,29.67,WNW,294,11.0,22.0,71,0.00,,,0.00,VWS V14.01,2013-04-01 04:37:00,
2013-04-01 00:42:00,38.5,29.9,29.67,WNW,302,9.0,22.0,71,0.00,,,0.00,VWS V14.01,2013-04-01 04:42:00,
2013-04-01 00:47:00,38.2,30.0,29.67,NW,309,11.0,22.0,72,0.00,,,0.00,VWS V14.01,2013-04-01 04:47:00,
2013-04-01 00:52:00,38.1,29.9,29.67,West,271,9.0,22.0,72,0.00,,,0.00,VWS V14.01,2013-04-01 04:52:00,
2013-04-01 00:57:00,38.0,29.8,29.67,WNW,294,4.0,22.0,72,0.00,,,0.00,VWS V14.01,2013-04-01 04:57:00,
2013-04-01 01:00:00,37.9,30.0,29.67,West,275,4.0,22.0,73,0.00,,,0.00,VWS V14.01,2013-04-01 05:00:00,
2013-04-01 01:02:00,37.8,29.9,29.67,WSW,257,10.0,10.0,73,0.00,,,0.00,VWS V14.01,2013-04-01 05:02:00,
2013-04-01 01:07:00,37.6,29.7,29.67,West,281,2.0,13.0,73,0.00,,,0.00,VWS V14.01,2013-04-01 05:07:00,
2013-04-01 01:12:00,37.4,29.9,29.68,WNW,283,5.0,13.0,74,0.00,,,0.00,VWS V14.01,2013-04-01 05:12:00,
2013-04-01 01:17:00,37.2,29.7,29.67,West,281,8.0,14.0,74,0.00,,,0.00,VWS V14.01,2013-04-01 05:17:00,
2013-04-01 01:22:00,37.1,29.9,29.68,West,278,5.0,14.0,75,0.00,,,0.00,VWS V14.01,2013-04-01 05:22:00,
2013-04-01 01:27:00,37.1,29.9,29.67,WNW,298,7.0,14.0,75,0.00,,,0.00,VWS V14.01,2013-04-01 05:27:00,
2013-04-01 01:32:00,37.0,30.1,29.68,West,278,6.0,14.0,76,0.00,,,0.00,VWS V14.01,2013-04-01 05:32:00,
2013-04-01 01:37:00,37.0,30.1,29.67,West,261,5.0,14.0,76,0.00,,,0.00,VWS V14.01,2013-04-01 05:37:00,
2013-04-01 01:42:00,37.1,30.2,29.68,WSW,244,7.0,14.0,76,0.00,,,0.00,VWS V14.01,2013-04-01 05:42:00,
2013-04-01 01:47:00,37.2,30.4,29.68,NW,311,6.0,14.0,76,0.00,,,0.00,VWS V14.01,2013-04-01 05:47:00,
2013-04-01 01:52:00,37.0,30.5,29.67,West,265,4.0,14.0,77,0.00,,,0.00,VWS V14.01,2013-04-01 05:52:00,
2013-04-01 01:57:00,36.7,30.2,29.67,West,269,5.0,14.0,77,0.00,,,0.00,VWS V14.01,2013-04-01 05:57:00,
2013-04-01 02:00:00,36.6,30.1,29.68,WNW,293,8.0,14.0,77,0.00,,,0.00,VWS V14.01,2013-04-01 06:00:00,
2013-04-01 02:02:00,36.6,30.4,29.67,WNW,286,10.0,18.0,78,0.00,,,0.00,VWS V14.01,2013-04-01 06:02:00,
2013-04-01 02:07:00,36.6,30.4,29.67,West,277,8.0,18.0,78,0.00,,,0.00,VWS V14.01,2013-04-01 06:07:00,
2013-04-01 02:12:00,36.5,30.6,29.68,West,281,8.0,18.0,79,0.00,,,0.00,VWS V14.01,2013-04-01 06:12:00,
2013-04-01 02:17:00,36.4,30.5,29.68,West,261,8.0,18.0,79,0.00,,,0.00,VWS V14.01,2013-04-01 06:17:00,
2013-04-01 02:22:00,36.3,30.4,29.68,WNW,284,11.0,18.0,79,0.00,,,0.00,VWS V14.01,2013-04-01 06:22:00,
2013-04-01 02:27:00,36.3,30.4,29.69,West,273,7.0,19.0,79,0.00,,,0.00,VWS V14.01,2013-04-01 06:27:00,
2013-04-01 02:33:00,36.1,30.2,29.69,West,268,10.0,19.0,79,0.00,,,0.00,VWS V14.01,2013-04-01 06:33:00,
2013-04-01 02:38:00,35.9,30.0,29.69,WNW,294,2.0,19.0,79,0.00,,,0.00,VWS V14.01,2013-04-01 06:38:00,
2013-04-01 02:43:00,35.7,29.8,29.70,WSW,257,5.0,19.0,79,0.00,,,0.00,VWS V14.01,2013-04-01 06:43:00,
2013-04-01 02:48:00,35.7,29.5,29.70,WNW,290,11.0,19.0,78,0.00,,,0.00,VWS V14.01,2013-04-01 06:48:00,
2013-04-01 02:53:00,35.8,29.3,29.70,NW,311,8.0,19.0,77,0.00,,,0.00,VWS V14.01,2013-04-01 06:53:00,
2013-04-01 02:58:00,35.8,29.3,29.71,WNW,290,2.0,19.0,77,0.00,,,0.00,VWS V14.01,2013-04-01 06:58:00,
2013-04-01 03:00:00,35.7,29.5,29.71,NW,312,5.0,19.0,78,0.00,,,0.00,VWS V14.01,2013-04-01 07:00:00,
2013-04-01 03:03:00,35.5,29.0,29.71,WNW,302,0.0,9.0,77,0.00,,,0.00,VWS V14.01,2013-04-01 07:03:00,
2013-04-01 03:08:00,35.0,28.5,29.72,NW,313,10.0,11.0,77,0.00,,,0.00,VWS V14.01,2013-04-01 07:08:00,
2013-04-01 03:13:00,34.4,28.3,29.72,NW,323,12.0,22.0,78,0.00,,,0.00,VWS V14.01,2013-04-01 07:13:00,
2013-04-01 03:18:00,33.5,28.0,29.73,NW,304,3.0,22.0,80,0.00,,,0.00,VWS V14.01,2013-04-01 07:18:00,
2013-04-01 03:23:00,33.1,27.9,29.73,WNW,288,5.0,22.0,81,0.00,,,0.00,VWS V14.01,2013-04-01 07:23:00,
2013-04-01 03:28:00,32.8,27.9,29.73,West,281,5.0,22.0,82,0.00,,,0.00,VWS V14.01,2013-04-01 07:28:00,
2013-04-01 03:33:00,32.6,28.0,29.74,WSW,238,7.0,22.0,83,0.00,,,0.00,VWS V14.01,2013-04-01 07:33:00,
2013-04-01 03:38:00,32.4,28.1,29.74,WNW,295,7.0,22.0,84,0.00,,,0.00,VWS V14.01,2013-04-01 07:38:00,
2013-04-01 03:43:00,32.2,28.2,29.74,WNW,286,1.0,22.0,85,0.00,,,0.00,VWS V14.01,2013-04-01 07:43:00,
2013-04-01 03:48:00,32.0,28.3,29.74,West,260,5.0,22.0,86,0.00,,,0.00,VWS V14.01,2013-04-01 07:48:00,
2013-04-01 03:53:00,31.9,27.9,29.74,WNW,292,7.0,22.0,85,0.00,,,0.00,VWS V14.01,2013-04-01 07:53:00,
2013-04-01 03:58:00,31.8,27.8,29.74,NNW,330,8.0,22.0,85,0.00,,,0.00,VWS V14.01,2013-04-01 07:58:00,
2013-04-01 04:00:00,31.8,27.8,29.74,WSW,253,3.0,22.0,85,0.00,,,0.00,VWS V14.01,2013-04-01 08:00:00,
2013-04-01 04:03:00,31.7,27.7,29.75,WNW,293,3.0,11.0,85,0.00,,,0.00,VWS V14.01,2013-04-01 08:03:00,
2013-04-01 04:08:00,31.6,27.3,29.75,WNW,286,5.0,11.0,84,0.00,,,0.00,VWS V14.01,2013-04-01 08:08:00,
2013-04-01 04:13:00,31.5,27.2,29.75,NW,304,8.0,12.0,84,0.00,,,0.00,VWS V14.01,2013-04-01 08:13:00,
2013-04-01 04:18:00,31.4,27.1,29.75,WNW,300,8.0,14.0,84,0.00,,,0.00,VWS V14.01,2013-04-01 08:18:00,
2013-04-01 04:23:00,31.3,27.0,29.76,West,275,2.0,14.0,84,0.00,,,0.00,VWS V14.01,2013-04-01 08:23:00,
2013-04-01 04:28:00,31.2,26.9,29.76,WNW,296,3.0,14.0,84,0.00,,,0.00,VWS V14.01,2013-04-01 08:28:00,
2013-04-01 04:33:00,31.1,26.8,29.76,NW,306,1.0,14.0,84,0.00,,,0.00,VWS V14.01,2013-04-01 08:33:00,
2013-04-01 04:38:00,30.9,26.6,29.76,West,267,2.0,14.0,84,0.00,,,0.00,VWS V14.01,2013-04-01 08:38:00,
2013-04-01 04:43:00,30.7,26.5,29.77,NNW,333,3.0,14.0,84,0.00,,,0.00,VWS V14.01,2013-04-01 08:43:00,
2013-04-01 04:48:00,30.6,26.4,29.77,WNW,296,1.0,14.0,84,0.00,,,0.00,VWS V14.01,2013-04-01 08:48:00,
2013-04-01 04:53:00,30.3,26.1,29.77,WSW,248,1.0,14.0,84,0.00,,,0.00,VWS V14.01,2013-04-01 08:53:00,
2013-04-01 04:58:00,30.1,25.9,29.77,West,263,4.0,14.0,84,0.00,,,0.00,VWS V14.01,2013-04-01 08:58:00,
2013-04-01 05:00:00,30.1,25.9,29.78,West,273,2.0,14.0,84,0.00,,,0.00,VWS V14.01,2013-04-01 09:00:00,
2013-04-01 05:03:00,30.0,25.8,29.78,WSW,256,4.0,9.0,84,0.00,,,0.00,VWS V14.01,2013-04-01 09:03:00,
2013-04-01 05:08:00,29.9,25.7,29.78,WNW,284,1.0,9.0,84,0.00,,,0.00,VWS V14.01,2013-04-01 09:08:00,
2013-04-01 05:13:00,29.8,25.9,29.78,West,267,1.0,9.0,85,0.00,,,0.00,VWS V14.01,2013-04-01 09:13:00,
2013-04-01 05:18:00,29.7,25.8,29.79,WNW,284,2.0,10.0,85,0.00,,,0.00,VWS V14.01,2013-04-01 09:18:00,
2013-04-01 05:23:00,29.7,25.8,29.80,West,263,1.0,12.0,85,0.00,,,0.00,VWS V14.01,2013-04-01 09:23:00,
2013-04-01 05:28:00,29.7,25.5,29.80,WNW,288,6.0,12.0,84,0.00,,,0.00,VWS V14.01,2013-04-01 09:28:00,
2013-04-01 05:33:00,29.7,24.9,29.80,West,279,5.0,12.0,82,0.00,,,0.00,VWS V14.01,2013-04-01 09:33:00,
2013-04-01 05:38:00,29.7,24.3,29.80,West,268,4.0,12.0,80,0.00,,,0.00,VWS V14.01,2013-04-01 09:38:00,
2013-04-01 05:43:00,29.6,23.3,29.81,West,271,4.0,12.0,77,0.00,,,0.00,VWS V14.01,2013-04-01 09:43:00,
2013-04-01 05:48:00,29.4,22.8,29.81,WNW,283,7.0,12.0,76,0.00,,,0.00,VWS V14.01,2013-04-01 09:48:00,
2013-04-01 05:53:00,29.2,21.6,29.81,West,281,7.0,12.0,73,0.00,,,0.00,VWS V14.01,2013-04-01 09:53:00,
2013-04-01 05:58:00,29.1,21.2,29.82,West,269,4.0,16.0,72,0.00,,,0.00,VWS V14.01,2013-04-01 09:58:00,
2013-04-01 06:00:00,29.0,21.1,29.82,West,277,5.0,16.0,72,0.00,,,0.00,VWS V14.01,2013-04-01 10:00:00,
2013-04-01 06:03:00,28.9,20.7,29.82,NW,317,1.0,10.0,71,0.00,,,0.00,VWS V14.01,2013-04-01 10:03:00,
2013-04-01 06:08:00,28.8,20.6,29.83,WNW,284,4.0,10.0,71,0.00,,,0.00,VWS V14.01,2013-04-01 10:08:00,
2013-04-01 06:13:00,28.6,20.4,29.83,NW,326,0.0,10.0,71,0.00,,,0.00,VWS V14.01,2013-04-01 10:13:00,
2013-04-01 06:18:00,28.4,20.2,29.83,West,276,2.0,10.0,71,0.00,,,0.00,VWS V14.01,2013-04-01 10:18:00,
2013-04-01 06:23:00,28.3,20.1,29.84,West,281,5.0,10.0,71,0.00,,,0.00,VWS V14.01,2013-04-01 10:23:00,
2013-04-01 06:28:00,28.1,19.9,29.84,NW,325,11.0,11.0,71,0.00,,,0.00,VWS V14.01,2013-04-01 10:28:00,
2013-04-01 06:33:00,28.1,19.9,29.84,WNW,298,5.0,13.0,71,0.00,,,0.00,VWS V14.01,2013-04-01 10:33:00,
2013-04-01 06:38:00,28.0,19.2,29.84,WNW,292,7.0,20.0,69,0.00,,,0.00,VWS V14.01,2013-04-01 10:38:00,
2013-04-01 06:43:00,28.0,19.2,29.85,WNW,296,2.0,20.0,69,0.00,,,0.00,VWS V14.01,2013-04-01 10:43:00,
2013-04-01 06:48:00,27.9,19.1,29.85,NW,306,5.0,20.0,69,0.00,,,0.00,VWS V14.01,2013-04-01 10:48:00,
2013-04-01 06:53:00,27.8,19.0,29.85,West,280,6.0,20.0,69,0.00,,,0.00,VWS V14.01,2013-04-01 10:53:00,
2013-04-01 06:58:00,27.6,18.8,29.85,West,275,2.0,20.0,69,0.00,,,0.00,VWS V14.01,2013-04-01 10:58:00,
2013-04-01 07:00:00,27.5,18.7,29.85,WNW,288,4.0,20.0,69,0.00,,,0.00,VWS V14.01,2013-04-01 11:00:00,
2013-04-01 07:03:00,27.4,18.6,29.86,WNW,284,4.0,6.0,69,0.00,,,0.00,VWS V14.01,2013-04-01 11:03:00,
2013-04-01 07:08:00,27.3,18.8,29.86,West,271,1.0,9.0,70,0.00,,,0.00,VWS V14.01,2013-04-01 11:08:00,
2013-04-01 07:13:00,27.2,18.7,29.86,WNW,288,0.0,10.0,70,0.00,,,0.00,VWS V14.01,2013-04-01 11:13:00,
2013-04-01 07:18:00,27.2,18.7,29.86,WSW,251,7.0,11.0,70,0.00,,,0.00,VWS V14.01,2013-04-01 11:18:00,
2013-04-01 07:23:00,27.2,18.7,29.87,WNW,303,6.0,11.0,70,0.00,,,0.00,VWS V14.01,2013-04-01 11:23:00,
2013-04-01 07:28:00,27.0,18.5,29.87,WNW,292,4.0,11.0,70,0.00,,,0.00,VWS V14.01,2013-04-01 11:28:00,
2013-04-01 07:33:00,27.0,18.9,29.87,NW,309,11.0,15.0,71,0.00,,,0.00,VWS V14.01,2013-04-01 11:33:00,
2013-04-01 07:38:00,27.1,18.6,29.87,WNW,289,5.0,15.0,70,0.00,,,0.00,VWS V14.01,2013-04-01 11:38:00,
2013-04-01 07:43:00,27.1,18.6,29.87,West,281,1.0,15.0,70,0.00,,,0.00,VWS V14.01,2013-04-01 11:43:00,
2013-04-01 07:48:00,27.2,18.7,29.88,West,267,6.0,15.0,70,0.00,,,0.00,VWS V14.01,2013-04-01 11:48:00,
2013-04-01 07:53:00,27.3,18.8,29.88,WNW,300,6.0,15.0,70,0.00,,,0.00,VWS V14.01,2013-04-01 11:53:00,
2013-04-01 07:58:00,27.4,18.9,29.88,WNW,295,5.0,15.0,70,0.00,,,0.00,VWS V14.01,2013-04-01 11:58:00,
2013-04-01 08:00:00,27.4,18.9,29.88,West,279,6.0,15.0,70,0.00,,,0.00,VWS V14.01,2013-04-01 12:00:00,
2013-04-01 08:03:00,27.5,19.0,29.89,NW,317,8.0,10.0,70,0.00,,,0.00,VWS V14.01,2013-04-01 12:03:00,
2013-04-01 08:08:00,27.6,19.1,29.89,WNW,289,1.0,12.0,70,0.00,,,0.00,VWS V14.01,2013-04-01 12:08:00,
2013-04-01 08:13:00,27.9,19.4,29.89,West,281,4.0,12.0,70,0.00,,,0.00,VWS V14.01,2013-04-01 12:13:00,
2013-04-01 08:18:00,28.1,19.3,29.90,West,265,5.0,12.0,69,0.00,,,0.00,VWS V14.01,2013-04-01 12:18:00,
2013-04-01 08:23:00,28.4,19.5,29.90,WSW,246,4.0,12.0,69,0.00,,,0.00,VWS V14.01,2013-04-01 12:23:00,
2013-04-01 08:28:00,28.7,19.8,29.90,WNW,287,9.0,14.0,69,0.00,,,0.00,VWS V14.01,2013-04-01 12:28:00,
2013-04-01 08:33:00,28.9,19.7,29.90,West,261,5.0,14.0,68,0.00,,,0.00,VWS V14.01,2013-04-01 12:33:00,
2013-04-01 08:38:00,29.3,20.1,29.90,WSW,254,5.0,14.0,68,0.00,,,0.00,VWS V14.01,2013-04-01 12:38:00,
2013-04-01 08:43:00,29.4,19.5,29.91,WNW,284,8.0,14.0,66,0.00,,,0.00,VWS V14.01,2013-04-01 12:43:00,
2013-04-01 08:48:00,29.4,18.4,29.91,WNW,290,5.0,24.0,63,0.00,,,0.00,VWS V14.01,2013-04-01 12:48:00,
2013-04-01 08:53:00,29.4,18.0,29.91,WNW,300,10.0,24.0,62,0.00,,,0.00,VWS V14.01,2013-04-01 12:53:00,
2013-04-01 08:58:00,29.5,17.7,29.91,WNW,288,9.0,24.0,61,0.00,,,0.00,VWS V14.01,2013-04-01 12:58:00,
2013-04-01 09:00:00,29.6,17.8,29.91,WNW,302,8.0,24.0,61,0.00,,,0.00,VWS V14.01,2013-04-01 13:00:00,
2013-04-01 09:03:00,29.8,18.4,29.91,NNW,338,16.0,16.0,62,0.00,,,0.00,VWS V14.01,2013-04-01 13:03:00,
2013-04-01 09:08:00,29.9,18.1,29.91,West,281,8.0,16.0,61,0.00,,,0.00,VWS V14.01,2013-04-01 13:08:00,
2013-04-01 09:13:00,30.2,18.0,29.91,NW,304,5.0,16.0,60,0.00,,,0.00,VWS V14.01,2013-04-01 13:13:00,
2013-04-01 09:18:00,30.4,18.2,29.91,NNW,331,8.0,20.0,60,0.00,,,0.00,VWS V14.01,2013-04-01 13:18:00,
2013-04-01 09:23:00,30.5,18.3,29.92,West,267,6.0,20.0,60,0.00,,,0.00,VWS V14.01,2013-04-01 13:23:00,
2013-04-01 09:28:00,30.7,18.1,29.91,West,274,0.0,20.0,59,0.00,,,0.00,VWS V14.01,2013-04-01 13:28:00,
2013-04-01 09:33:00,31.0,18.0,29.92,WNW,285,11.0,20.0,58,0.00,,,0.00,VWS V14.01,2013-04-01 13:33:00,
2013-04-01 09:38:00,30.9,17.1,29.92,WSW,244,5.0,20.0,56,0.00,,,0.00,VWS V14.01,2013-04-01 13:38:00,
2013-04-01 09:43:00,31.0,17.2,29.92,West,263,8.0,20.0,56,0.00,,,0.00,VWS V14.01,2013-04-01 13:43:00,
2013-04-01 09:48:00,31.1,16.8,29.92,NW,318,8.0,20.0,55,0.00,,,0.00,VWS V14.01,2013-04-01 13:48:00,
2013-04-01 09:53:00,31.5,17.2,29.92,WNW,292,5.0,20.0,55,0.00,,,0.00,VWS V14.01,2013-04-01 13:53:00,
2013-04-01 09:58:00,31.8,17.5,29.92,NNW,327,5.0,20.0,55,0.00,,,0.00,VWS V14.01,2013-04-01 13:58:00,
2013-04-01 10:00:00,31.9,17.2,29.92,NW,304,4.0,20.0,54,0.00,,,0.00,VWS V14.01,2013-04-01 14:00:00,
2013-04-01 10:03:00,32.1,17.3,29.93,NW,310,2.0,11.0,54,0.00,,,0.00,VWS V14.01,2013-04-01 14:03:00,
2013-04-01 10:08:00,32.1,16.5,29.93,NNW,327,8.0,16.0,52,0.00,,,0.00,VWS V14.01,2013-04-01 14:08:00,
2013-04-01 10:13:00,32.2,16.6,29.93,NNW,338,6.0,16.0,52,0.00,,,0.00,VWS V14.01,2013-04-01 14:13:00,
2013-04-01 10:18:00,32.1,16.5,29.93,NW,307,7.0,22.0,52,0.00,,,0.00,VWS V14.01,2013-04-01 14:18:00,
2013-04-01 10:23:00,32.0,15.9,29.93,West,280,8.0,22.0,51,0.00,,,0.00,VWS V14.01,2013-04-01 14:23:00,
2013-04-01 10:28:00,31.9,16.3,29.94,West,269,3.0,22.0,52,0.00,,,0.00,VWS V14.01,2013-04-01 14:28:00,
2013-04-01 10:33:00,32.5,17.3,29.94,WNW,286,9.0,22.0,53,0.00,,,0.00,VWS V14.01,2013-04-01 14:33:00,
2013-04-01 10:38:00,32.9,16.8,29.94,West,269,7.0,22.0,51,0.00,,,0.00,VWS V14.01,2013-04-01 14:38:00,
2013-04-01 10:43:00,32.6,16.0,29.94,West,269,12.0,22.0,50,0.00,,,0.00,VWS V14.01,2013-04-01 14:43:00,
2013-04-01 10:48:00,33.1,17.0,29.94,West,279,10.0,22.0,51,0.00,,,0.00,VWS V14.01,2013-04-01 14:48:00,
2013-04-01 10:53:00,32.9,15.9,29.95,WNW,293,12.0,22.0,49,0.00,,,0.00,VWS V14.01,2013-04-01 14:53:00,
2013-04-01 10:58:00,32.6,16.5,29.95,WNW,286,9.0,22.0,51,0.00,,,0.00,VWS V14.01,2013-04-01 14:58:00,
2013-04-01 11:00:00,32.9,16.8,29.94,West,277,13.0,22.0,51,0.00,,,0.00,VWS V14.01,2013-04-01 15:00:00,
2013-04-01 11:03:00,33.3,17.6,29.95,WNW,284,4.0,20.0,52,0.00,,,0.00,VWS V14.01,2013-04-01 15:03:00,
2013-04-01 11:08:00,33.9,17.7,29.95,WSW,254,7.0,20.0,51,0.00,,,0.00,VWS V14.01,2013-04-01 15:08:00,
2013-04-01 11:13:00,33.3,15.7,29.95,West,272,12.0,20.0,48,0.00,,,0.00,VWS V14.01,2013-04-01 15:13:00,
2013-04-01 11:18:00,33.8,17.1,29.95,WNW,295,7.0,20.0,50,0.00,,,0.00,VWS V14.01,2013-04-01 15:18:00,
2013-04-01 11:23:00,34.2,16.6,29.95,WNW,293,13.0,20.0,48,0.00,,,0.00,VWS V14.01,2013-04-01 15:23:00,
2013-04-01 11:28:00,33.9,16.8,29.95,West,281,9.0,20.0,49,0.00,,,0.00,VWS V14.01,2013-04-01 15:28:00,
2013-04-01 11:33:00,33.7,17.0,29.95,NNW,336,8.0,20.0,50,0.00,,,0.00,VWS V14.01,2013-04-01 15:33:00,
2013-04-01 11:38:00,34.4,18.2,29.95,NW,311,8.0,20.0,51,0.00,,,0.00,VWS V14.01,2013-04-01 15:38:00,
2013-04-01 11:43:00,35.0,17.3,29.96,WSW,256,6.0,20.0,48,0.00,,,0.00,VWS V14.01,2013-04-01 15:43:00,
2013-04-01 11:48:00,35.1,17.9,29.95,WNW,288,13.0,20.0,49,0.00,,,0.00,VWS V14.01,2013-04-01 15:48:00,
2013-04-01 11:53:00,33.8,16.7,29.96,NNW,335,7.0,20.0,49,0.00,,,0.00,VWS V14.01,2013-04-01 15:53:00,
2013-04-01 11:58:00,33.9,17.2,29.96,West,265,6.0,20.0,50,0.00,,,0.00,VWS V14.01,2013-04-01 15:58:00,
2013-04-01 12:00:00,34.1,17.4,29.95,West,269,9.0,20.0,50,0.00,,,0.00,VWS V14.01,2013-04-01 16:00:00,
2013-04-01 12:03:00,34.4,16.8,29.96,West,274,4.0,16.0,48,0.00,,,0.00,VWS V14.01,2013-04-01 16:03:00,
2013-04-01 12:08:00,34.8,17.6,29.96,West,271,4.0,16.0,49,0.00,,,0.00,VWS V14.01,2013-04-01 16:08:00,
2013-04-01 12:13:00,35.1,17.9,29.97,NNE,13,8.0,16.0,49,0.00,,,0.00,VWS V14.01,2013-04-01 16:13:00,
2013-04-01 12:18:00,34.4,17.2,29.96,West,271,7.0,16.0,49,0.00,,,0.00,VWS V14.01,2013-04-01 16:18:00,
2013-04-01 12:23:00,34.1,17.0,29.96,West,272,4.0,16.0,49,0.00,,,0.00,VWS V14.01,2013-04-01 16:23:00,
2013-04-01 12:28:00,33.9,16.8,29.97,WSW,257,5.0,19.0,49,0.00,,,0.00,VWS V14.01,2013-04-01 16:28:00,
2013-04-01 12:33:00,34.0,17.3,29.97,NW,304,6.0,19.0,50,0.00,,,0.00,VWS V14.01,2013-04-01 16:33:00,
2013-04-01 12:38:00,34.4,17.2,29.97,WSW,241,15.0,19.0,49,0.00,,,0.00,VWS V14.01,2013-04-01 16:38:00,
2013-04-01 12:43:00,34.7,16.5,29.96,WNW,299,9.0,19.0,47,0.00,,,0.00,VWS V14.01,2013-04-01 16:43:00,
2013-04-01 12:48:00,34.6,16.0,29.97,WNW,303,10.0,19.0,46,0.00,,,0.00,VWS V14.01,2013-04-01 16:48:00,
2013-04-01 12:53:00,35.1,16.9,29.97,West,277,8.0,19.0,47,0.00,,,0.00,VWS V14.01,2013-04-01 16:53:00,
2013-04-01 12:58:00,35.6,17.4,29.96,West,261,9.0,19.0,47,0.00,,,0.00,VWS V14.01,2013-04-01 16:58:00,
2013-04-01 13:00:00,35.4,17.2,29.96,WNW,284,8.0,19.0,47,0.00,,,0.00,VWS V14.01,2013-04-01 17:00:00,
2013-04-01 13:03:00,35.1,17.4,29.97,NW,323,6.0,14.0,48,0.00,,,0.00,VWS V14.01,2013-04-01 17:03:00,
2013-04-01 13:08:00,35.9,17.6,29.96,NW,324,9.0,18.0,47,0.00,,,0.00,VWS V14.01,2013-04-01 17:08:00,
2013-04-01 13:13:00,36.2,18.4,29.97,WSW,246,11.0,18.0,48,0.00,,,0.00,VWS V14.01,2013-04-01 17:13:00,
2013-04-01 13:18:00,36.4,18.1,29.97,NW,306,8.0,19.0,47,0.00,,,0.00,VWS V14.01,2013-04-01 17:18:00,
2013-04-01 13:23:00,36.0,18.2,29.97,West,267,16.0,19.0,48,0.00,,,0.00,VWS V14.01,2013-04-01 17:23:00,
2013-04-01 13:28:00,36.2,18.4,29.97,SW,216,7.0,19.0,48,0.00,,,0.00,VWS V14.01,2013-04-01 17:28:00,
2013-04-01 13:33:00,36.3,18.0,29.97,WSW,248,11.0,19.0,47,0.00,,,0.00,VWS V14.01,2013-04-01 17:33:00,
2013-04-01 13:38:00,36.4,17.1,29.97,WNW,287,15.0,21.0,45,0.00,,,0.00,VWS V14.01,2013-04-01 17:38:00,
2013-04-01 13:43:00,36.4,18.6,29.96,West,261,9.0,21.0,48,0.00,,,0.00,VWS V14.01,2013-04-01 17:43:00,
2013-04-01 13:48:00,36.8,18.0,29.96,West,275,10.0,21.0,46,0.00,,,0.00,VWS V14.01,2013-04-01 17:48:00,
2013-04-01 13:53:00,36.6,17.3,29.96,West,268,11.0,21.0,45,0.00,,,0.00,VWS V14.01,2013-04-01 17:53:00,
2013-04-01 13:58:00,36.5,18.2,29.97,WNW,300,7.0,21.0,47,0.00,,,0.00,VWS V14.01,2013-04-01 17:58:00,
2013-04-01 14:00:00,36.4,17.6,29.96,NW,309,8.0,21.0,46,0.00,,,0.00,VWS V14.01,2013-04-01 18:00:00,
2013-04-01 14:03:00,36.1,16.8,29.96,NW,309,6.0,16.0,45,0.00,,,0.00,VWS V14.01,2013-04-01 18:03:00,
2013-04-01 14:08:00,36.1,16.8,29.96,NW,323,6.0,16.0,45,0.00,,,0.00,VWS V14.01,2013-04-01 18:08:00,
2013-04-01 14:13:00,35.7,17.0,29.96,WNW,293,8.0,19.0,46,0.00,,,0.00,VWS V14.01,2013-04-01 18:13:00,
2013-04-01 14:18:00,35.5,16.8,29.97,WSW,257,9.0,19.0,46,0.00,,,0.00,VWS V14.01,2013-04-01 18:18:00,
2013-04-01 14:23:00,35.7,17.0,29.97,WNW,288,4.0,22.0,46,0.00,,,0.00,VWS V14.01,2013-04-01 18:23:00,
2013-04-01 14:28:00,35.6,15.3,29.97,NNW,336,6.0,22.0,43,0.00,,,0.00,VWS V14.01,2013-04-01 18:28:00,
2013-04-01 14:33:00,35.9,16.6,29.96,West,272,6.0,22.0,45,0.00,,,0.00,VWS V14.01,2013-04-01 18:33:00,
2013-04-01 14:38:00,35.8,16.5,29.97,NW,310,7.0,23.0,45,0.00,,,0.00,VWS V14.01,2013-04-01 18:38:00,
2013-04-01 14:43:00,35.4,16.7,29.97,NW,309,8.0,23.0,46,0.00,,,0.00,VWS V14.01,2013-04-01 18:43:00,
2013-04-01 14:48:00,35.7,16.5,29.96,West,266,5.0,23.0,45,0.00,,,0.00,VWS V14.01,2013-04-01 18:48:00,
2013-04-01 14:53:00,36.0,17.2,29.96,WNW,287,14.0,23.0,46,0.00,,,0.00,VWS V14.01,2013-04-01 18:53:00,
2013-04-01 14:58:00,35.9,17.1,29.96,NNW,337,3.0,23.0,46,0.00,,,0.00,VWS V14.01,2013-04-01 18:58:00,
2013-04-01 15:00:00,35.9,17.1,29.96,West,259,7.0,23.0,46,0.00,,,0.00,VWS V14.01,2013-04-01 19:00:00,
2013-04-01 15:03:00,36.5,18.7,29.97,WSW,257,9.0,19.0,48,0.00,,,0.00,VWS V14.01,2013-04-01 19:03:00,
2013-04-01 15:08:00,36.4,17.1,29.97,West,261,11.0,20.0,45,0.00,,,0.00,VWS V14.01,2013-04-01 19:08:00,
2013-04-01 15:13:00,36.4,17.6,29.97,WNW,286,15.0,20.0,46,0.00,,,0.00,VWS V14.01,2013-04-01 19:13:00,
2013-04-01 15:18:00,36.1,17.8,29.97,West,280,8.0,21.0,47,0.00,,,0.00,VWS V14.01,2013-04-01 19:18:00,
2013-04-01 15:23:00,36.0,17.2,29.97,West,263,7.0,21.0,46,0.00,,,0.00,VWS V14.01,2013-04-01 19:23:00,
2013-04-01 15:28:00,35.8,16.5,29.97,WNW,291,4.0,21.0,45,0.00,,,0.00,VWS V14.01,2013-04-01 19:28:00,
2013-04-01 15:33:00,36.1,16.8,29.96,NW,306,9.0,21.0,45,0.00,,,0.00,VWS V14.01,2013-04-01 19:33:00,
2013-04-01 15:38:00,36.0,16.7,29.97,West,271,11.0,22.0,45,0.00,,,0.00,VWS V14.01,2013-04-01 19:38:00,
2013-04-01 15:43:00,35.8,16.5,29.97,WNW,292,7.0,22.0,45,0.00,,,0.00,VWS V14.01,2013-04-01 19:43:00,
2013-04-01 15:48:00,35.7,15.9,29.97,West,265,15.0,22.0,44,0.00,,,0.00,VWS V14.01,2013-04-01 19:48:00,
2013-04-01 15:53:00,35.7,17.0,29.98,WSW,254,13.0,22.0,46,0.00,,,0.00,VWS V14.01,2013-04-01 19:53:00,
2013-04-01 15:58:00,36.7,17.4,29.98,NNW,340,7.0,22.0,45,0.00,,,0.00,VWS V14.01,2013-04-01 19:58:00,
2013-04-01 16:00:00,36.7,17.4,29.98,WNW,296,8.0,22.0,45,0.00,,,0.00,VWS V14.01,2013-04-01 20:00:00,
2013-04-01 16:03:00,36.5,16.7,29.98,WNW,299,9.0,18.0,44,0.00,,,0.00,VWS V14.01,2013-04-01 20:03:00,
2013-04-01 16:08:00,35.9,16.6,29.98,WNW,285,7.0,18.0,45,0.00,,,0.00,VWS V14.01,2013-04-01 20:08:00,
2013-04-01 16:13:00,35.4,15.7,29.98,NNW,327,5.0,18.0,44,0.00,,,0.00,VWS V14.01,2013-04-01 20:13:00,
2013-04-01 16:18:00,36.1,17.3,29.98,West,269,18.0,18.0,46,0.00,,,0.00,VWS V14.01,2013-04-01 20:18:00,
2013-04-01 16:23:00,36.9,17.6,29.98,West,260,14.0,21.0,45,0.00,,,0.00,VWS V14.01,2013-04-01 20:23:00,
2013-04-01 16:28:00,37.0,17.6,29.98,SW,236,16.0,23.0,45,0.00,,,0.00,VWS V14.01,2013-04-01 20:28:00,
2013-04-01 16:33:00,36.8,17.5,29.98,WNW,296,15.0,23.0,45,0.00,,,0.00,VWS V14.01,2013-04-01 20:33:00,
2013-04-01 16:38:00,36.6,17.8,29.98,West,263,7.0,23.0,46,0.00,,,0.00,VWS V14.01,2013-04-01 20:38:00,
2013-04-01 16:43:00,36.7,17.4,29.98,West,267,16.0,23.0,45,0.00,,,0.00,VWS V14.01,2013-04-01 20:43:00,
2013-04-01 16:49:00,35.7,15.4,29.99,West,265,11.0,23.0,43,0.00,,,0.00,VWS V14.01,2013-04-01 20:49:00,
2013-04-01 16:54:00,35.3,16.6,29.98,WNW,298,4.0,23.0,46,0.00,,,0.00,VWS V14.01,2013-04-01 20:54:00,
2013-04-01 16:59:00,36.3,17.5,29.98,North,350,8.0,23.0,46,0.00,,,0.00,VWS V14.01,2013-04-01 20:59:00,
2013-04-01 17:00:00,36.6,17.8,29.98,West,279,7.0,23.0,46,0.00,,,0.00,VWS V14.01,2013-04-01 21:00:00,
2013-04-01 17:04:00,36.6,16.8,29.99,WNW,288,11.0,21.0,44,0.00,,,0.00,VWS V14.01,2013-04-01 21:04:00,
2013-04-01 17:09:00,36.3,16.5,29.99,WNW,299,12.0,21.0,44,0.00,,,0.00,VWS V14.01,2013-04-01 21:09:00,
2013-04-01 17:14:00,36.5,16.7,29.99,West,268,12.0,23.0,44,0.00,,,0.00,VWS V14.01,2013-04-01 21:14:00,
2013-04-01 17:19:00,36.8,17.5,29.99,WSW,240,9.0,23.0,45,0.00,,,0.00,VWS V14.01,2013-04-01 21:19:00,
2013-04-01 17:24:00,36.8,17.0,29.99,West,260,4.0,23.0,44,0.00,,,0.00,VWS V14.01,2013-04-01 21:24:00,
2013-04-01 17:29:00,36.3,16.0,29.99,West,277,5.0,23.0,43,0.00,,,0.00,VWS V14.01,2013-04-01 21:29:00,
2013-04-01 17:34:00,36.6,16.8,29.99,West,272,11.0,23.0,44,0.00,,,0.00,VWS V14.01,2013-04-01 21:34:00,
2013-04-01 17:39:00,36.0,16.7,30.00,NW,315,7.0,23.0,45,0.00,,,0.00,VWS V14.01,2013-04-01 21:39:00,
2013-04-01 17:44:00,36.1,16.8,30.00,WNW,289,7.0,23.0,45,0.00,,,0.00,VWS V14.01,2013-04-01 21:44:00,
2013-04-01 17:49:00,35.6,16.9,30.00,WNW,290,14.0,23.0,46,0.00,,,0.00,VWS V14.01,2013-04-01 21:49:00,
2013-04-01 17:54:00,35.1,16.9,30.00,NNW,329,6.0,24.0,47,0.00,,,0.00,VWS V14.01,2013-04-01 21:54:00,
2013-04-01 17:59:00,35.0,17.3,30.00,NW,310,8.0,24.0,48,0.00,,,0.00,VWS V14.01,2013-04-01 21:59:00,
2013-04-01 18:00:00,35.0,16.3,30.00,West,269,9.0,24.0,46,0.00,,,0.00,VWS V14.01,2013-04-01 22:00:00,
2013-04-01 18:04:00,34.5,15.9,30.01,WNW,285,8.0,22.0,46,0.00,,,0.00,VWS V14.01,2013-04-01 22:04:00,
2013-04-01 18:09:00,34.2,16.6,30.01,WNW,300,8.0,22.0,48,0.00,,,0.00,VWS V14.01,2013-04-01 22:09:00,
2013-04-01 18:14:00,34.6,16.0,30.01,WNW,291,6.0,22.0,46,0.00,,,0.00,VWS V14.01,2013-04-01 22:14:00,
2013-04-01 18:19:00,34.3,15.7,30.01,West,268,8.0,22.0,46,0.00,,,0.00,VWS V14.01,2013-04-01 22:19:00,
2013-04-01 18:24:00,34.1,15.5,30.01,West,269,8.0,22.0,46,0.00,,,0.00,VWS V14.01,2013-04-01 22:24:00,
2013-04-01 18:29:00,33.7,15.1,30.01,West,260,14.0,22.0,46,0.00,,,0.00,VWS V14.01,2013-04-01 22:29:00,
2013-04-01 18:34:00,33.4,15.4,30.02,NW,304,6.0,22.0,47,0.00,,,0.00,VWS V14.01,2013-04-01 22:34:00,
2013-04-01 18:39:00,33.4,15.8,30.02,WNW,297,9.0,22.0,48,0.00,,,0.00,VWS V14.01,2013-04-01 22:39:00,
2013-04-01 18:44:00,33.4,16.3,30.02,West,281,6.0,22.0,49,0.00,,,0.00,VWS V14.01,2013-04-01 22:44:00,
2013-04-01 18:49:00,33.6,16.5,30.02,WNW,286,9.0,22.0,49,0.00,,,0.00,VWS V14.01,2013-04-01 22:49:00,
2013-04-01 18:54:00,32.5,15.5,30.03,NW,313,11.0,22.0,49,0.00,,,0.00,VWS V14.01,2013-04-01 22:54:00,
2013-04-01 18:59:00,32.3,15.8,30.03,West,274,12.0,22.0,50,0.00,,,0.00,VWS V14.01,2013-04-01 22:59:00,
2013-04-01 19:00:00,32.3,15.8,30.03,WNW,302,7.0,22.0,50,0.00,,,0.00,VWS V14.01,2013-04-01 23:00:00,
2013-04-01 19:04:00,32.2,15.7,30.03,WNW,296,8.0,13.0,50,0.00,,,0.00,VWS V14.01,2013-04-01 23:04:00,
2013-04-01 19:09:00,31.6,15.6,30.03,West,281,5.0,14.0,51,0.00,,,0.00,VWS V14.01,2013-04-01 23:09:00,
2013-04-01 19:14:00,31.1,15.1,30.04,West,265,8.0,15.0,51,0.00,,,0.00,VWS V14.01,2013-04-01 23:14:00,
2013-04-01 19:19:00,30.9,15.4,30.04,WSW,244,7.0,15.0,52,0.00,,,0.00,VWS V14.01,2013-04-01 23:19:00,
2013-04-01 19:24:00,30.8,15.3,30.04,NW,308,3.0,15.0,52,0.00,,,0.00,VWS V14.01,2013-04-01 23:24:00,
2013-04-01 19:29:00,30.7,15.6,30.04,West,274,7.0,15.0,53,0.00,,,0.00,VWS V14.01,2013-04-01 23:29:00,
2013-04-01 19:34:00,30.5,15.0,30.04,West,281,9.0,15.0,52,0.00,,,0.00,VWS V14.01,2013-04-01 23:34:00,
2013-04-01 19:39:00,30.3,14.8,30.05,WNW,302,9.0,18.0,52,0.00,,,0.00,VWS V14.01,2013-04-01 23:39:00,
2013-04-01 19:44:00,30.2,15.1,30.05,WNW,288,13.0,18.0,53,0.00,,,0.00,VWS V14.01,2013-04-01 23:44:00,
2013-04-01 19:49:00,30.1,15.1,30.05,NNW,331,8.0,20.0,53,0.00,,,0.00,VWS V14.01,2013-04-01 23:49:00,
2013-04-01 19:54:00,29.9,14.4,30.05,NW,311,8.0,20.0,52,0.00,,,0.00,VWS V14.01,2013-04-01 23:54:00,
2013-04-01 19:59:00,29.7,14.7,30.05,WNW,283,5.0,20.0,53,0.00,,,0.00,VWS V14.01,2013-04-01 23:59:00,
2013-04-01 20:00:00,29.6,14.6,30.05,WNW,288,5.0,20.0,53,0.00,,,0.00,VWS V14.01,2013-04-02 00:00:00,
2013-04-01 20:04:00,29.5,14.9,30.05,West,261,5.0,10.0,54,0.00,,,0.00,VWS V14.01,2013-04-02 00:04:00,
2013-04-01 20:09:00,29.3,14.7,30.05,WNW,286,4.0,18.0,54,0.00,,,0.00,VWS V14.01,2013-04-02 00:09:00,
2013-04-01 20:14:00,29.2,15.1,30.05,West,262,3.0,18.0,55,0.00,,,0.00,VWS V14.01,2013-04-02 00:14:00,
2013-04-01 20:19:00,29.1,14.5,30.05,West,271,6.0,18.0,54,0.00,,,0.00,VWS V14.01,2013-04-02 00:19:00,
2013-04-01 20:24:00,29.1,14.5,30.05,WSW,248,6.0,18.0,54,0.00,,,0.00,VWS V14.01,2013-04-02 00:24:00,
2013-04-01 20:29:00,29.0,14.4,30.05,NW,310,8.0,20.0,54,0.00,,,0.00,VWS V14.01,2013-04-02 00:29:00,
2013-04-01 20:34:00,28.9,14.4,30.06,West,275,6.0,20.0,54,0.00,,,0.00,VWS V14.01,2013-04-02 00:34:00,
2013-04-01 20:39:00,28.8,14.3,30.06,WNW,288,5.0,20.0,54,0.00,,,0.00,VWS V14.01,2013-04-02 00:39:00,
2013-04-01 20:44:00,28.7,14.6,30.06,West,281,2.0,20.0,55,0.00,,,0.00,VWS V14.01,2013-04-02 00:44:00,
2013-04-01 20:49:00,28.7,14.6,30.06,WNW,286,8.0,20.0,55,0.00,,,0.00,VWS V14.01,2013-04-02 00:49:00,
2013-04-01 20:54:00,28.5,14.4,30.06,NW,304,11.0,20.0,55,0.00,,,0.00,VWS V14.01,2013-04-02 00:54:00,
2013-04-01 20:59:00,28.4,14.3,30.06,NW,318,6.0,20.0,55,0.00,,,0.00,VWS V14.01,2013-04-02 00:59:00,
2013-04-01 21:00:00,28.3,14.2,30.06,WNW,294,13.0,20.0,55,0.00,,,0.00,VWS V14.01,2013-04-02 01:00:00,
2013-04-01 21:04:00,28.2,14.1,30.06,WNW,302,15.0,15.0,55,0.00,,,0.00,VWS V14.01,2013-04-02 01:04:00,
2013-04-01 21:09:00,28.1,14.0,30.07,WNW,292,6.0,15.0,55,0.00,,,0.00,VWS V14.01,2013-04-02 01:09:00,
2013-04-01 21:14:00,27.9,14.2,30.07,WNW,284,3.0,15.0,56,0.00,,,0.00,VWS V14.01,2013-04-02 01:14:00,
2013-04-01 21:19:00,27.7,14.1,30.07,West,280,0.0,15.0,56,0.00,,,0.00,VWS V14.01,2013-04-02 01:19:00,
2013-04-01 21:24:00,27.6,14.4,30.07,NW,313,8.0,15.0,57,0.00,,,0.00,VWS V14.01,2013-04-02 01:24:00,
2013-04-01 21:29:00,27.6,14.0,30.07,WNW,286,8.0,15.0,56,0.00,,,0.00,VWS V14.01,2013-04-02 01:29:00,
2013-04-01 21:34:00,27.6,14.0,30.07,WNW,291,4.0,15.0,56,0.00,,,0.00,VWS V14.01,2013-04-02 01:34:00,
2013-04-01 21:39:00,27.5,13.9,30.07,WNW,290,8.0,15.0,56,0.00,,,0.00,VWS V14.01,2013-04-02 01:39:00,
2013-04-01 21:44:00,27.4,14.2,30.07,West,273,5.0,15.0,57,0.00,,,0.00,VWS V14.01,2013-04-02 01:44:00,
2013-04-01 21:49:00,27.3,14.1,30.07,West,263,2.0,15.0,57,0.00,,,0.00,VWS V14.01,2013-04-02 01:49:00,
2013-04-01 21:54:00,27.2,14.0,30.07,West,272,11.0,15.0,57,0.00,,,0.00,VWS V14.01,2013-04-02 01:54:00,
2013-04-01 21:59:00,27.2,14.0,30.07,WNW,286,5.0,15.0,57,0.00,,,0.00,VWS V14.01,2013-04-02 01:59:00,
2013-04-01 22:00:00,27.2,14.4,30.08,WNW,294,2.0,15.0,58,0.00,,,0.00,VWS V14.01,2013-04-02 02:00:00,
2013-04-01 22:04:00,27.1,14.3,30.08,West,274,5.0,8.0,58,0.00,,,0.00,VWS V14.01,2013-04-02 02:04:00,
2013-04-01 22:09:00,27.1,14.3,30.08,West,259,2.0,12.0,58,0.00,,,0.00,VWS V14.01,2013-04-02 02:09:00,
2013-04-01 22:14:00,27.0,14.2,30.08,West,281,3.0,12.0,58,0.00,,,0.00,VWS V14.01,2013-04-02 02:14:00,
2013-04-01 22:19:00,26.9,14.5,30.08,West,280,4.0,12.0,59,0.00,,,0.00,VWS V14.01,2013-04-02 02:19:00,
2013-04-01 22:24:00,26.7,14.3,30.08,WNW,291,1.0,12.0,59,0.00,,,0.00,VWS V14.01,2013-04-02 02:24:00,
2013-04-01 22:29:00,26.5,14.5,30.08,West,280,7.0,12.0,60,0.00,,,0.00,VWS V14.01,2013-04-02 02:29:00,
2013-04-01 22:34:00,26.3,14.3,30.08,West,277,3.0,12.0,60,0.00,,,0.00,VWS V14.01,2013-04-02 02:34:00,
2013-04-01 22:39:00,26.2,14.6,30.08,West,268,1.0,12.0,61,0.00,,,0.00,VWS V14.01,2013-04-02 02:39:00,
2013-04-01 22:44:00,26.1,14.5,30.08,WNW,287,3.0,12.0,61,0.00,,,0.00,VWS V14.01,2013-04-02 02:44:00,
2013-04-01 22:49:00,26.0,14.4,30.08,WNW,282,6.0,12.0,61,0.00,,,0.00,VWS V14.01,2013-04-02 02:49:00,
2013-04-01 22:54:00,26.0,14.4,30.08,West,273,7.0,12.0,61,0.00,,,0.00,VWS V14.01,2013-04-02 02:54:00,
2013-04-01 22:59:00,26.0,14.8,30.08,West,264,2.0,12.0,62,0.00,,,0.00,VWS V14.01,2013-04-02 02:59:00,
2013-04-01 23:00:00,26.0,14.8,30.08,West,265,1.0,12.0,62,0.00,,,0.00,VWS V14.01,2013-04-02 03:00:00,
2013-04-01 23:04:00,25.9,14.7,30.08,NW,321,1.0,9.0,62,0.00,,,0.00,VWS V14.01,2013-04-02 03:04:00,
2013-04-01 23:09:00,25.8,14.6,30.08,WNW,296,2.0,9.0,62,0.00,,,0.00,VWS V14.01,2013-04-02 03:09:00,
2013-04-01 23:14:00,25.7,14.9,30.08,West,268,1.0,9.0,63,0.00,,,0.00,VWS V14.01,2013-04-02 03:14:00,
2013-04-01 23:19:00,25.5,14.7,30.08,West,279,3.0,9.0,63,0.00,,,0.00,VWS V14.01,2013-04-02 03:19:00,
2013-04-01 23:24:00,25.4,14.6,30.08,West,280,3.0,9.0,63,0.00,,,0.00,VWS V14.01,2013-04-02 03:24:00,
2013-04-01 23:29:00,25.3,14.8,30.08,West,260,4.0,9.0,64,0.00,,,0.00,VWS V14.01,2013-04-02 03:29:00,
2013-04-01 23:34:00,25.3,14.8,30.08,West,272,3.0,9.0,64,0.00,,,0.00,VWS V14.01,2013-04-02 03:34:00,
2013-04-01 23:39:00,25.2,14.8,30.08,West,274,0.0,9.0,64,0.00,,,0.00,VWS V14.01,2013-04-02 03:39:00,
2013-04-01 23:44:00,25.0,14.6,30.08,West,274,1.0,9.0,64,0.00,,,0.00,VWS V14.01,2013-04-02 03:44:00,
2013-04-01 23:49:00,24.8,14.4,30.08,West,274,0.0,9.0,64,0.00,,,0.00,VWS V14.01,2013-04-02 03:49:00,
2013-04-01 23:54:00,24.6,14.5,30.08,West,274,0.0,9.0,65,0.00,,,0.00,VWS V14.01,2013-04-02 03:54:00,
2013-04-01 23:59:00,24.4,14.3,30.08,West,274,1.0,9.0,65,0.00,,,0.00,VWS V14.01,2013-04-02 03:59:00,